Theta_e
323 327 327 327 327 328 329 330 330 330 329 329 327 326 325 325 323 313 307 313 314 327 322 307 308 305 304 302 303 301 293 290 293 293 295 298 297 298 299 300 302 305 313 317 324
323 323 326 327 327 327 328 329 329 329 329 328 326 324 326 324 310 306 320 327 328 331 308 304 303 303 298 299 299 295 291 293 297 296 297 298 298 298 297 298 301 312 319 324 323
322 321 323 325 326 326 327 328 328 328 328 327 327 325 324 320 302 302 323 326 331 328 310 307 305 303 298 298 297 296 294 296 296 298 299 298 297 297 297 293 302 312 318 321 321
321 322 323 324 325 326 327 327 327 327 327 325 325 325 323 312 291 305 325 325 331 314 308 305 302 297 296 295 298 295 298 296 299 300 299 298 299 296 295 297 302 319 322 322 321
319 320 322 323 324 324 326 326 327 327 325 325 322 323 313 300 301 310 326 327 319 309 304 303 300 298 295 297 296 295 294 297 298 299 298 299 296 297 296 297 304 319 321 321 322
319 319 321 322 322 323 324 325 326 326 325 324 324 321 306 293 308 315 317 313 310 305 302 302 301 301 297 297 296 297 295 294 296 296 296 297 295 296 298 299 308 319 318 320 321
318 319 320 321 322 322 323 324 325 325 324 323 320 312 302 298 310 314 314 310 310 305 301 303 302 299 297 295 298 296 293 293 293 295 294 295 293 295 296 300 304 315 316 317 320
318 319 320 320 321 322 322 323 324 324 323 323 319 309 298 309 308 310 307 306 308 305 303 304 302 301 297 297 295 292 291 287 291 294 294 294 290 296 297 298 301 306 309 313 317
318 319 319 319 320 321 321 321 322 323 324 323 312 304 295 312 306 307 304 302 304 302 301 304 302 297 295 289 287 287 284 286 289 293 293 291 289 293 294 295 295 297 299 303 308
318 319 319 319 320 320 320 321 321 321 319 312 307 298 298 299 305 306 304 303 300 299 298 297 295 291 289 287 283 284 284 285 287 291 291 288 290 293 292 292 292 292 292 292 294
318 319 319 319 319 320 318 313 305 302 305 297 296 295 296 301 305 303 304 301 299 295 289 292 288 285 289 290 289 288 286 285 287 291 291 290 290 292 293 291 292 291 291 292 293
318 318 319 319 320 319 313 302 302 300 295 299 299 299 301 303 297 300 302 296 293 288 290 288 285 290 292 291 290 287 284 284 288 290 287 287 289 291 291 292 293 293 292 293 293
318 318 318 318 319 314 307 303 306 305 292 294 298 298 299 300 296 297 300 296 291 288 288 286 289 293 291 288 288 285 285 284 285 287 287 284 284 286 290 291 292 293 295 295 295
318 317 317 318 312 309 302 306 306 301 286 289 293 297 300 299 294 301 301 297 291 288 289 288 291 291 289 287 288 284 288 288 287 283 280 283 277 282 285 288 290 293 294 295 295
317 317 317 317 310 303 304 306 304 297 275 290 293 302 300 294 296 296 300 295 289 288 289 287 288 288 287 288 290 287 289 288 286 282 280 279 278 282 283 286 289 291 292 294 293
316 316 317 313 310 308 307 305 299 285 276 286 293 293 293 294 294 295 296 296 294 290 289 288 291 290 290 289 290 290 287 286 283 281 277 279 280 279 283 287 289 289 291 292 292
316 316 314 313 305 308 307 300 283 276 288 284 287 291 290 289 290 292 291 287 286 282 282 285 286 288 291 288 289 287 284 277 277 276 276 278 278 281 286 288 288 289 291 291 294
315 315 313 312 310 308 302 290 276 283 285 288 289 290 286 289 288 289 289 286 288 285 283 281 280 287 289 288 285 285 284 278 273 274 276 279 278 283 288 288 289 289 290 294 294
315 312 309 309 309 307 295 282 280 285 288 287 288 285 283 288 288 287 287 288 288 287 284 281 281 287 289 289 290 285 282 285 279 270 275 278 281 286 289 288 287 288 289 291 293
310 306 305 310 310 301 290 283 284 290 291 290 282 284 282 285 284 284 285 290 289 289 289 286 282 287 288 290 289 287 288 282 280 271 271 277 277 281 284 288 286 288 289 290 292
307 299 306 310 307 295 284 283 289 292 293 288 285 284 284 284 284 283 285 287 292 290 290 288 286 283 287 286 284 284 283 283 283 280 275 272 277 284 286 287 287 287 288 290 292
302 291 306 308 292 290 286 288 293 291 294 292 290 287 286 286 284 284 284 287 292 291 287 289 286 281 282 286 287 287 286 286 280 276 277 278 278 285 285 288 287 287 287 287 291
292 294 306 303 286 286 287 289 292 292 292 291 289 290 289 287 284 287 287 291 292 292 289 289 282 275 280 284 286 283 284 285 283 281 279 276 278 288 287 288 290 289 289 290 291
292 288 296 298 292 289 287 287 287 294 293 294 292 291 289 287 289 286 288 291 292 292 296 294 284 282 279 281 285 283 285 285 285 279 279 281 280 283 286 287 289 290 289 290 291
288 287 290 287 287 289 289 288 287 288 293 294 291 290 289 285 286 286 288 288 290 294 292 289 277 282 281 284 284 283 283 284 283 284 281 284 283 284 286 286 286 288 289 290 291
286 288 290 292 290 289 289 287 288 290 291 290 289 290 291 287 287 285 287 286 287 288 287 288 277 281 278 283 283 281 283 286 286 285 283 282 283 288 286 288 288 288 290 291 291
287 291 294 292 289 287 287 287 288 291 291 293 292 291 289 290 292 292 293 292 290 289 287 286 280 276 272 281 281 277 282 283 284 285 286 282 288 290 286 288 288 289 289 290 291
Wind_Speed
16 25 25 24 23 20 21 20 19 19 17 15 15 10 10 9 7 2 8 6 7 7 1 6 3 2 3 3 2 3 4 3 6 7 5 4 5 1 1 6 3 2 7 7 12
22 17 26 27 24 22 22 20 21 19 18 17 15 15 12 12 3 7 4 8 7 8 4 7 5 4 2 3 1 4 3 8 3 6 8 5 5 8 4 4 4 3 5 13 14
23 24 27 27 25 23 21 19 19 18 17 17 13 14 15 10 3 9 15 10 9 10 4 4 5 4 2 4 4 4 5 3 2 3 7 10 7 2 10 3 7 11 13 13 8
26 24 30 28 26 24 22 20 19 19 18 18 14 9 11 1 9 2 13 18 10 8 7 6 4 4 3 7 4 5 5 3 4 2 6 9 7 5 5 7 10 16 20 16 14
28 27 24 27 25 24 23 21 19 19 20 18 20 11 5 4 8 1 4 13 8 8 8 8 5 5 5 5 5 5 2 2 2 5 6 5 5 5 5 2 8 10 14 16 15
30 30 30 27 25 24 24 21 20 20 21 19 18 19 2 8 3 5 9 11 8 6 6 6 9 7 4 5 5 8 3 2 3 3 3 5 3 4 6 3 10 15 13 12 15
29 30 31 27 25 25 24 22 21 21 20 21 17 5 2 14 2 5 8 6 8 8 7 4 4 4 3 3 3 5 7 2 0 0 2 2 1 6 3 6 10 11 11 9 11
31 31 32 32 28 26 25 21 20 20 20 18 20 7 7 2 5 6 3 5 6 4 2 5 3 4 4 2 4 5 5 5 2 4 2 4 8 5 6 9 10 10 8 8 11
32 31 31 29 28 27 27 25 20 19 20 22 8 1 8 6 5 5 4 8 7 3 1 4 4 4 4 6 4 4 4 3 3 3 4 4 7 5 2 8 9 9 9 10 9
32 32 32 30 28 27 25 26 22 20 13 7 6 4 7 8 6 7 4 7 5 7 4 5 4 4 3 4 9 4 3 2 5 7 2 4 8 6 0 6 9 9 8 8 9
34 35 33 32 31 32 29 20 12 5 15 8 16 4 11 6 5 4 5 5 4 6 6 3 5 7 7 7 7 7 6 6 2 0 3 7 6 9 6 4 8 9 9 10 11
34 37 34 34 36 37 23 18 22 5 14 6 12 2 3 7 8 7 10 7 5 6 4 5 7 7 6 2 3 4 5 3 1 2 3 1 11 10 6 8 9 10 10 11 7
36 37 36 36 38 24 21 24 15 18 6 3 8 3 5 5 5 12 14 6 10 8 6 7 7 8 9 5 6 3 6 5 5 3 2 1 8 5 7 6 6 8 10 8 13
40 38 39 38 26 19 15 23 19 6 6 3 9 5 3 7 5 4 7 8 4 10 9 7 4 11 6 6 7 5 3 6 8 5 5 1 7 5 4 9 5 12 13 15 12
41 40 41 38 21 19 22 18 15 4 10 12 4 2 6 6 15 7 2 4 10 8 8 7 9 7 5 8 9 5 5 7 4 5 3 2 2 9 0 5 11 11 11 13 8
37 42 42 15 13 18 12 14 5 6 7 9 10 11 10 5 1 6 5 2 5 6 5 4 2 8 8 3 6 9 7 9 6 4 3 6 6 7 5 9 7 5 7 7 8
39 42 34 14 20 18 14 14 8 6 7 8 11 13 13 7 5 12 18 7 8 10 7 2 1 2 5 8 4 6 8 3 2 2 7 1 1 9 7 10 7 8 8 2 5
39 40 21 11 20 15 9 12 11 6 12 6 11 19 9 12 3 4 14 9 5 4 7 8 5 8 5 7 9 7 9 8 8 6 4 1 9 9 8 6 8 3 1 5 6
39 19 12 19 21 11 16 18 12 21 11 11 14 21 5 9 10 6 15 21 8 9 9 7 2 2 4 5 10 5 6 6 8 3 4 6 8 10 10 8 3 4 4 6 5
18 11 13 25 23 11 14 9 6 11 16 20 10 8 14 23 8 11 16 19 11 8 5 7 6 3 3 5 2 6 9 4 3 5 4 5 6 7 3 9 3 5 7 6 6
9 11 15 24 13 10 20 6 5 6 20 9 8 9 8 14 7 9 17 1 14 9 3 6 5 2 3 7 9 4 4 3 6 6 7 2 7 8 9 4 6 7 7 9 8
6 6 18 22 15 11 16 9 5 9 2 6 7 6 11 14 5 6 13 5 12 10 9 3 6 5 5 2 3 4 8 9 6 6 3 3 8 4 3 3 2 4 1 3 6
6 5 13 23 18 19 10 6 3 8 7 7 6 5 9 14 7 5 8 6 13 17 15 8 1 5 5 5 3 6 4 5 6 4 7 5 5 3 2 5 4 6 3 3 5
5 10 10 14 4 21 20 13 5 2 5 5 7 11 10 10 3 9 6 4 11 14 7 10 4 10 15 7 9 8 10 7 8 6 6 17 4 1 2 4 4 3 3 5 6
4 4 2 25 14 27 20 15 6 8 2 6 3 16 13 8 4 7 5 4 4 5 8 9 6 4 2 7 7 5 8 12 13 12 12 13 17 8 9 7 4 4 3 4 6
5 8 3 17 11 25 22 26 18 6 9 7 12 17 16 11 11 9 9 4 6 3 5 1 1 4 2 3 5 5 12 19 22 14 9 4 13 7 3 5 4 4 6 8 9
2 2 5 22 20 22 27 28 20 10 3 4 15 9 7 7 8 5 6 6 11 13 6 8 8 4 5 3 6 8 12 10 9 8 13 15 23 6 4 5 5 7 7 9 10
Wind_Direction
230 204 195 193 193 201 196 184 183 178 181 172 177 169 194 157 144 172 222 210 197 149 127 105 62 341 85 100 143 87 70 180 197 157 219 185 139 120 90 118 78 9 158 177 148
230 242 201 193 192 197 194 187 182 176 174 170 175 178 167 163 141 241 223 207 234 143 135 151 166 139 96 151 137 106 132 214 215 183 181 173 149 149 112 125 33 47 48 132 139
228 211 228 194 190 192 190 186 181 174 167 158 166 172 165 195 113 237 194 209 204 175 165 153 118 138 179 135 189 164 197 229 270 243 162 159 144 152 127 245 200 171 154 152 162
224 213 216 195 188 189 183 183 181 169 165 157 155 172 168 233 185 176 188 182 181 155 132 142 125 148 197 160 203 155 242 271 307 25 129 159 124 136 182 218 174 169 162 159 170
211 203 212 191 187 185 177 178 177 164 158 154 160 165 140 226 256 240 153 150 131 139 174 154 151 146 188 182 143 164 228 61 1 67 95 125 123 177 223 253 153 147 162 171 178
206 199 202 191 185 185 178 178 177 161 159 152 154 160 194 219 238 144 116 127 153 136 167 141 189 199 166 195 173 188 134 111 15 20 76 121 131 154 221 131 138 160 179 176 185
203 200 191 181 181 181 173 176 175 158 159 160 159 142 326 211 175 139 134 157 157 150 160 195 161 170 123 117 202 148 108 72 336 94 71 110 65 215 191 145 161 182 188 185 198
200 197 185 181 176 173 168 170 163 153 160 147 152 121 274 270 134 119 140 135 148 154 131 169 167 158 132 160 57 125 70 147 227 148 16 85 250 258 170 150 185 195 198 203 209
205 188 182 178 172 166 163 159 144 140 147 150 141 169 237 122 155 177 153 151 141 145 130 119 121 146 86 112 57 18 168 195 160 175 126 134 247 256 175 178 188 205 210 217 221
198 179 174 171 164 160 148 131 127 127 131 149 127 128 234 192 161 145 158 144 138 128 89 111 71 116 64 109 197 154 138 171 178 209 147 163 248 273 290 172 200 216 226 236 239
192 177 168 163 158 145 125 118 128 131 187 174 187 234 144 147 99 151 149 100 89 80 151 159 125 179 174 178 177 168 155 168 247 324 150 207 253 238 242 230 234 232 227 233 235
177 167 163 161 157 147 148 156 171 143 164 287 179 250 145 140 122 178 131 123 120 140 121 80 193 202 164 139 152 165 152 176 27 54 148 152 259 258 235 230 216 223 230 232 235
171 165 162 162 150 153 174 153 151 127 132 19 164 158 151 99 115 173 159 136 143 146 167 155 206 160 157 162 185 209 165 185 172 130 63 330 292 253 261 232 224 238 231 232 223
167 164 158 155 151 162 170 153 158 157 97 167 187 199 124 128 103 166 167 141 150 170 136 176 193 163 155 173 134 196 195 136 139 122 201 98 272 283 263 267 228 239 229 231 223
162 157 158 163 145 171 160 156 151 65 150 156 201 122 145 166 135 215 168 83 160 159 127 215 154 136 167 171 159 201 142 136 113 90 79 306 76 271 12 287 253 248 231 233 225
163 157 157 159 136 158 138 134 93 97 195 169 158 170 144 164 63 128 140 73 147 114 59 174 127 156 169 88 154 139 89 45 48 69 300 218 164 270 205 214 255 260 253 229 210
162 156 159 153 151 151 144 139 106 153 166 157 172 172 167 153 141 170 171 175 161 132 157 85 343 126 128 89 8 119 99 32 12 337 224 60 198 244 251 243 225 264 255 236 129
158 156 157 150 143 151 152 144 164 152 173 141 143 156 171 139 15 139 148 182 232 124 120 153 199 167 160 153 167 163 155 155 181 201 231 358 238 244 238 277 245 258 13 122 153
154 156 161 145 150 156 159 171 188 167 129 130 127 159 145 182 136 150 180 188 176 187 145 135 189 71 87 144 152 208 181 153 105 25 62 223 289 289 287 261 267 124 137 177 192
156 148 147 149 147 156 173 166 129 134 122 140 142 197 173 181 144 171 169 197 182 176 183 185 111 315 162 113 39 182 153 90 16 128 253 270 270 238 308 272 177 223 210 201 207
159 148 153 145 130 157 186 184 123 144 133 137 153 152 160 179 160 176 176 234 182 178 152 121 104 230 152 209 156 132 172 97 121 153 169 225 263 223 231 258 250 233 219 207 204
120 142 158 150 155 181 180 158 138 149 133 137 122 120 152 169 121 155 187 153 175 144 154 135 116 150 185 273 230 165 177 171 160 224 247 164 257 347 237 115 108 51 113 190 192
110 132 158 154 168 183 156 175 134 149 164 145 131 149 154 163 139 159 166 170 174 170 169 181 123 85 15 345 301 195 169 126 96 66 202 146 248 302 49 52 67 106 125 185 190
139 135 134 182 147 161 166 176 127 58 141 122 117 125 119 159 56 176 142 183 181 195 143 123 142 180 190 189 143 183 184 173 160 187 165 231 148 197 134 130 72 97 196 214 213
22 137 134 170 188 170 166 168 142 150 197 163 98 157 150 149 121 154 134 119 76 190 155 145 156 162 117 153 136 153 172 178 204 197 190 240 238 189 218 228 235 239 215 242 252
111 150 93 160 148 162 175 191 176 158 150 193 157 169 161 151 182 167 121 141 162 91 132 104 176 115 344 138 144 171 201 203 216 217 259 295 268 174 173 120 196 238 212 238 247
36 345 155 156 162 167 191 180 182 125 11 158 144 128 139 149 99 90 81 94 148 157 143 136 131 102 215 113 86 296 199 192 206 205 212 232 244 169 156 210 229 247 244 243 248